Regional Weather Roundup
Issued by NWS

Home | Current Version | Previous Version | Graphics & Text | Print | Product List | Glossary On
Versions: 1 2 3 4 5 6 7 8 9 10 11 12 13 14 15 16 17 18 19 20 21 22 23 24 25 26 27
000
ASUS45 KBOU 271507
RWRCO

WEATHER ROUNDUP FOR COLORADO
NATIONAL WEATHER SERVICE DENVER/BOULDER CO
900 AM MDT FRI MAY 27 2016

NOTE: "FAIR" INDICATES FEW OR NO CLOUDS BELOW 12000 FEET WITH NO
SIGNIFICANT WEATHER AND/OR OBSTRUCTIONS TO VISIBILITY.

COZ001>005-013-030-031-271600-
...NORTHWEST COLORADO...

CITY           SKY/WX    TMP DP  RH WIND       PRES   REMARKS
CRAIG          CLOUDY    50  41  71 VRB3      30.00S
HAYDEN         FAIR      46  36  66 SE3       30.00S
MEEKER         FAIR      49  40  71 SW5       30.00S
MOUNT WERNER   NOT AVBL
STEAMBOAT SPGS FAIR      42  38  84 CALM      30.01R
WALDEN         FAIR      43  32  65 N9        30.03S
$$

COZ006>008-011-271600-
...WEST CENTRAL VALLEYS...

CITY           SKY/WX    TMP DP  RH WIND       PRES   REMARKS
GRAND JUNCTION PTSUNNY   59  36  42 CALM      29.95R
MONTROSE       PTSUNNY   53  37  54 CALM      30.01R
EAGLE          MOSUNNY   45  41  87 CALM      30.03S
RIFLE          FAIR      55  39  54 NE3       29.97S
DELTA          FAIR      55  39  54 CALM      29.99R
NUCLA          FAIR      52  34  50 CALM      30.03F
$$

COZ017>023-064>068-271600-
...SOUTHWEST COLORADO...

CITY           SKY/WX    TMP DP  RH WIND       PRES   REMARKS
DURANGO        FAIR      52  33  48 VRB3      29.97R
CORTEZ         FAIR      54  35  48 CALM      29.98F
PAGOSA SPRINGS FAIR      47  33  59 CALM      30.00S
TELLURIDE      CLOUDY    38  36  92 CALM      30.10R
WOLF CREEK PAS FAIR      32  23  69 N13G23    30.14R WCI  22
$$

COZ009-010-012-014-032>034-037-058>063-271600-
...CENTRAL COLORADO...

CITY           SKY/WX    TMP DP  RH WIND       PRES   REMARKS
ASPEN          FAIR      44  35  70 N3        30.01F
BUENA VISTA    FAIR      46  32  56 NW14G21   29.95S
COPPER MTN     NOT AVBL
BERTHOUD PASS  CLOUDY    23  14  68 N14G22    30.08R WCI  11
COTTONWOOD PAS FAIR      46  32  57 CALM      30.01F
GUNNISON       FAIR      45  34  65 CALM      30.02S
KREMMLING      FAIR      50  34  53 SW5       30.01F
LEADVILLE      FAIR      36  28  73 N17G23    30.02F
MONARCH PASS   SNOW      28  27  93 W13G18    30.19R VSB<1/4 WCI  18
SALIDA         FAIR      46  38  72 SW5       30.03S
SUNLIGHT       FAIR      36  32  87 NW3       30.14R
WILKERSON PASS CLOUDY    30  27  86 NE9G21    30.06R WCI  22
$$

COZ069>075-271600-
...SAN LUIS VALLEY/SANGRE DE CRISTO MOUNTAINS...

CITY           SKY/WX    TMP DP  RH WIND       PRES   REMARKS
ALAMOSA        PTSUNNY   42  37  82 CALM      29.98R
LA VETA PASS   FOG       32  30  93 SW6       30.01S VSB 1   WCI  26
SAGUACHE       PTSUNNY   41  36  81 SE5       29.99F
$$

COZ035-036-038>040-271600-
...NORTHERN COLORADO FRONT RANGE...

CITY           SKY/WX    TMP DP  RH WIND       PRES   REMARKS
DENVER INTL AP PTSUNNY   49  42  77 N12       29.88S
DMNS CITY PARK   N/A     56  37  49 N17G29    29.87R
AURORA         CLOUDY    49  46  90 NE14      29.89R
FRONT RANGE AP RAIN      46  45  93 N21G26    29.89R
ERIE MUNI ARPT CLOUDY    56  41  57 N12       29.88R
BOULDER MUN AP NOT AVBL
CENTENNIAL     CLOUDY    52  38  58 N21G32    29.87S
BROOMFIELD     PTSUNNY   54  41  62 N9        29.89R
FORT COLLINS   FAIR      55  39  54 N15       29.90R
LONGMONT       PTSUNNY   59  40  48 N9        29.89S
$$

COZ041-046-047-076>085-087-088-271600-
...PIKES PEAK/PALMER DIVIDE AND SOUTHERN FOOTHILLS...

CITY           SKY/WX    TMP DP  RH WIND       PRES   REMARKS
COLO. SPRINGS  PTSUNNY   52  37  56 NW20G30   29.85F
A. F. ACADEMY  FAIR      50  36  57 NW28G35   29.85R
SCHRIEVER AFB  NOT AVBL
ELLICOTT       LGT RAIN N/A N/A N/A N22G32    29.83S
FALCON         FAIR      48  37  65 N20G35    29.86S
FORT CARSON    FAIR      52  38  59 N16G25    29.84R
LIMON          LGT RAIN  46  44  93 N26G35    29.80R
MONUMENT HILL  PTSUNNY   43  37  81 N21G28    29.90R
TRINIDAD       LGT RAIN  45  41  86 NW13      29.91R
$$

COZ042>045-048>051-090-091-271600-
...NORTHEAST COLORADO...

CITY           SKY/WX    TMP DP  RH WIND       PRES   REMARKS
GREELEY ARPT   FAIR      54  45  71 N18G25    29.89R
AKRON          CLOUDY    50  49  96 N13       29.80R
BURLINGTON     CLOUDY    55  48  77 N7        29.76R
WRAY           NOT AVBL
STERLING       LGT RAIN  50  50 100 N15       29.82R
HOLYOKE        NOT AVBL
FORT MORGAN    LGT RAIN  49  47  93 N18G24    29.85R
$$

COZ086-089-092>099-271600-
...SOUTHEAST COLORADO...

CITY           SKY/WX    TMP DP  RH WIND       PRES   REMARKS
PUEBLO         PTSUNNY   55  46  71 NW7       29.82S
LA JUNTA       LGT RAIN  49  46  90 W16       29.79F
LAMAR          CLOUDY    53  45  74 W22G29    29.73F
SPRINGFIELD      N/A     53  39  59 W20G30    29.79S
$$




USA.gov is the U.S. government's official web portal to all federal, state and local government web resources and services.